SL-14 DEB, 45284

Orbit data source: Space-Track

SL-14 DEB, 45284 is space debris in LEO originally from a launch on Thu, 15 Aug 1991 UTC launched from the Plesetsk Missile And Space Complex (PKMTR). Debris objects in space refer to the collection of defunct objects orbiting the Earth. Examples of debris include non-operational satellites, rocket bodies, and fragments generated from explosions, collisions, or faulty payload assembly.

Loading next visibility...
Identifier
45284, 1991-056W
Orbit
LEO
Last TLE update
14 hours ago
Origin
Manufacturer
Unknown
Mission
Spacecraft
Bus & Motor
Unknown
Mass
Unknown
Launch date (UTC)
1991-08-15 (34 years ago)
Launch vehicle
Unknown
Launch site
Plesetsk Missile And Space Complex (PKMTR)
Object type
Payload
Rocket body
Debris
Shape & HBR
Unknown
Radar Cross Section
Small (<0.1 m²)

Expand to show TLE details & history

TLE from 14 hours ago
0 SL-14 DEB
1 45284U 91056W   25199.41953302 -.00000037  00000-0 -84848-4 0  9995
2 45284  82.5636 325.1135 0088947  30.3469 330.2776 13.44151348264280
Epoch: 2025-07-18T10:04Z
TLE epoch observation values (Epoch: 2025-07-18T10:04:07.652Z)
Latitude
0.00001°
Longitude
-122.38964°
Altitude
1,039.12 km
Speed
7.36 km/s
True Right ascension
21h 40m 27s
True Declination
0° 00' 00"
Sunlit
Object was in full shadow at epoch
Visualization orbit readout
Latitude
-32.03216°
Longitude
61.85266°
Altitude
1,172.185 km
Speed
7.234 km/s
Apparent Right ascension
06h 38m 21s
Apparent Declination
-64° 26' 07"
Sunlit
Object is in daylight
Visualization observer readout
Local Sidereal Time
12:25:04
Azimuth
211.322° SW
Elevation
-34.033°
Doppler factor
1
Orbital elements
Apogee altitude
1,157.497 km
Perigee altitude
1,024.625 km
Semi-major axis
7,469.198 km
Eccentricity
0.00889
Inclination
82.5636°
RAAN
325.1135°
Arg. of periapsis
30.3469°
True anomaly
329.76734°
Mean anomaly
330.2776°
Eccentric anomaly
330.02296°
Mean motion
3.36227 °/min
Orbital period
107.07 mins
BSTAR
-0.000084848
Loading maneuver chart data...
Loading SW <> Apogee altitude chart data...
Loading historical data...
Loading historical data...
Loading historical data...
Loading historical data...
Loading historical data...
Loading historical data...
Loading historical data...
|